Weather History for Aurora, IL

Change the Weather History Date:

Friday, November 2, 2012

  Actual Average Record
Temperature  
Mean Temperature 36 °F 45 °F  
Max Temperature 47 °F 55 °F 71 °F (2008)
Min Temperature 25 °F 34 °F 15 °F (2006)
Degree Days  
Heating Degree Days 29 20  
Month to date heating degree days 56 40  
Since 1 July heating degree days 747 647  
Cooling Degree Days 0 0  
Month to date cooling degree days 0 0  
Year to date cooling degree days 1007 655  
Moisture  
Dew Point 27 °F    
Average Humidity 67    
Maximum Humidity 92    
Minimum Humidity 42    
Precipitation  
Precipitation 0.00 in 0.12 in 0.99 in (2003)
Month to date precipitation 0.00 0.25  
Year to date precipitation 21.49 32.01  
Sea Level Pressure  
Sea Level Pressure 30.08 in    
Wind  
Wind Speed 6 mph (North)    
Max Wind Speed 13 mph    
Max Gust Speed 16 mph    
Visibility 10 miles    
Events      
T = Trace of Precipitation, MM = Missing Value Source: NWS Daily Summary

Daily Weather History Graph

Daily Weather History Graph

Search for Another Location

Airport:

Trip Planner

Search our weather history database for the weather conditions in past years. The results will help you decide how hot, cold, wet, or windy it might be!

Date:

Astronomy

Nov. 02, 2012 Rise Set
Actual Time 7:27 AM CDT 5:46 PM CDT
Civil Twilight 6:58 AM CDT 6:15 PM CDT
Nautical Twilight 6:25 AM CDT 6:48 PM CDT
Astronomical Twilight 5:53 AM CDT 7:20 PM CDT
Moon 8:31 PM CDT (11/2) 10:50 AM CDT (11/2)
Length of Visible Light 11h 16m
Length of Day
10h 18m
Waning Gibbous, 87% of the Moon is Illuminated
Nov 2
Waning Gibbous
Nov 6
Last Quarter
Nov 13
New
Nov 20
First Quarter
Nov 28
Full

Hourly Weather History & Observations

Time (CDT) Temp. Windchill Dew Point Humidity Pressure Visibility Wind Dir Wind Speed Gust Speed Precip Events Conditions
12:52 AM 30.9 °F 23.5 °F 27.0 °F 85% 29.94 in 10.0 mi NNW 8.1 mph - N/A   Clear
2:52 AM 32.0 °F 24.2 °F 28.0 °F 85% 29.98 in 10.0 mi North 9.2 mph - N/A   Clear
3:52 AM 28.9 °F 23.9 °F 27.0 °F 92% 29.99 in 10.0 mi NNW 4.6 mph - N/A   Clear
4:52 AM 28.0 °F 20.8 °F 26.1 °F 92% 30.01 in 10.0 mi NNW 6.9 mph - N/A   Clear
5:52 AM 28.0 °F 20.8 °F 26.1 °F 92% 30.03 in 10.0 mi NNW 6.9 mph - N/A   Clear
6:52 AM 26.1 °F 19.4 °F 24.1 °F 92% 30.05 in 10.0 mi North 5.8 mph - N/A   Clear
7:52 AM 27.0 °F - 25.0 °F 92% 30.08 in 10.0 mi Calm Calm - N/A   Clear
8:52 AM 33.1 °F 26.9 °F 28.9 °F 85% 30.09 in 10.0 mi North 6.9 mph - N/A   Clear
9:52 AM 37.9 °F 30.9 °F 28.9 °F 70% 30.10 in 10.0 mi NNE 10.4 mph - N/A   Clear
10:52 AM 42.1 °F 36.1 °F 28.0 °F 58% 30.12 in 10.0 mi North 10.4 mph - N/A   Clear
11:52 AM 43.0 °F 38.2 °F 27.0 °F 53% 30.12 in 10.0 mi North 8.1 mph - N/A   Clear
12:52 PM 44.1 °F 41.5 °F 27.0 °F 51% 30.11 in 10.0 mi Variable 4.6 mph - N/A   Clear
1:52 PM 46.0 °F 43.9 °F 26.1 °F 46% 30.10 in 10.0 mi North 4.6 mph - N/A   Clear
2:52 PM 46.0 °F 44.8 °F 25.0 °F 44% 30.09 in 10.0 mi North 3.5 mph - N/A   Clear
3:52 PM 46.0 °F 42.5 °F 26.1 °F 46% 30.10 in 10.0 mi North 6.9 mph - N/A   Clear
4:52 PM 44.1 °F 39.5 °F 26.1 °F 49% 30.11 in 10.0 mi North 8.1 mph - N/A   Clear
5:52 PM 39.9 °F 36.7 °F 27.0 °F 60% 30.11 in 10.0 mi North 4.6 mph - N/A   Clear
6:52 PM 37.0 °F 32.4 °F 27.0 °F 67% 30.12 in 10.0 mi North 5.8 mph - N/A   Clear
7:52 PM 37.9 °F 34.4 °F 30.0 °F 73% 30.13 in 10.0 mi ENE 4.6 mph - N/A   Clear
8:52 PM 36.0 °F 32.1 °F 30.0 °F 79% 30.13 in 10.0 mi ENE 4.6 mph - N/A   Clear
9:52 PM 36.0 °F 33.3 °F 30.9 °F 82% 30.15 in 10.0 mi NE 3.5 mph - N/A   Clear
10:52 PM 34.0 °F 29.8 °F 30.0 °F 85% 30.16 in 10.0 mi ENE 4.6 mph - N/A   Clear